Torna al catalogo

DELTA 1 DEB

AttivoPO
NORAD 21565·DEBRIS·🇺🇸 United States

Lanciato Jun 12, 1975 da Vandenberg Space Force Base

Loading…

Prossimi Passaggi (prossime 24 ore)

TLE

AggiornatoSource: Space-Track

Epoca: Sep 14, 2026, 06:51 UTC

1 21565U 75052HK  26257.28599986  .00000327  00000-0  11592-2 0  9998
2 21565  99.8302  17.3513 0367682 130.5846 262.8239 12.82059222645573

Traccia DELTA 1 DEB in tempo reale con AllMySat

Download on the App Store